Date String (YYYY-MM-DD hh:mm:ss) UTC,Instrument flags,Ambient pressure (hPa),Sample flow (lpm),Bypass flow (lpm),Sample temperature (°C),Ambient temperature (°C),ASC tube jacket temperature (°C),LED temperature (°C),Box temperature (°C),Sample RH (%),Span deviation,Mass concentration (μg/m³),Mass concentration (μg/m³),Mass concentration (μg/m³)
DateTimeUTC,F1_M11,P_M11,Q1_M11,Q2_M11,T1_M11,T2_M11,T3_M11,T4_M11,T5_M11,U1_M11,ZSPAN_M11,X0_M11,X2_M11,X1_M11
2022-05-16 23:00:00,,0821.7,5.01,0.00,29.1,27.8,00.0,38.1,31.0,14.1,0000.0,0015.67,0004.41,0002.85
2022-05-16 23:01:00,,0821.7,5.00,0.00,29.2,28.0,00.0,38.1,31.1,13.5,0000.0,0014.75,0004.41,0002.84
2022-05-16 23:02:00,,0821.7,5.01,0.00,29.2,28.1,00.0,38.1,31.1,13.1,0000.0,0013.12,0004.38,0002.84
2022-05-16 23:03:00,,0821.6,5.00,0.00,29.3,28.3,00.0,38.1,31.2,12.9,0000.0,0012.79,0004.41,0002.86
2022-05-16 23:04:00,,0821.7,4.99,0.00,29.3,28.3,00.0,38.1,31.2,12.9,0000.0,0013.53,0004.45,0002.85
2022-05-16 23:05:00,,0821.7,5.00,0.00,29.3,26.8,00.0,38.1,31.0,12.8,0000.0,0014.58,0004.41,0002.83
2022-05-16 23:06:00,,0821.6,5.01,0.00,29.2,24.9,00.0,38.1,30.6,12.9,0000.0,0013.92,0004.36,0002.84
2022-05-16 23:07:00,,0821.7,5.00,0.00,29.1,25.0,00.0,38.1,30.5,13.2,0000.0,0013.45,0004.30,0002.84
2022-05-16 23:08:00,,0821.7,5.00,0.00,29.0,25.5,00.0,38.0,30.5,13.3,0000.0,0013.28,0004.30,0002.86
2022-05-16 23:09:00,,0821.7,5.00,0.00,28.9,26.0,00.0,38.0,30.6,13.3,0000.0,0013.56,0004.31,0002.87
2022-05-16 23:10:00,,0821.7,5.01,0.00,28.9,26.4,00.0,38.0,30.6,13.3,0000.0,0014.28,0004.34,0002.89
2022-05-16 23:11:00,,0821.7,4.99,0.00,29.0,26.8,00.0,38.0,30.7,13.7,0000.0,0014.67,0004.31,0002.92
2022-05-16 23:12:00,,0821.7,5.01,0.00,29.0,27.1,00.0,38.0,30.8,14.1,0000.0,0014.63,0004.32,0002.95
2022-05-16 23:13:00,,0821.6,5.00,0.00,29.0,27.4,00.0,38.0,30.9,13.6,0000.0,0014.91,0004.34,0002.95
2022-05-16 23:14:00,,0821.7,5.01,0.00,29.1,27.6,00.0,38.0,30.9,13.0,0000.0,0014.99,0004.31,0002.96
2022-05-16 23:15:00,,0821.6,5.00,0.00,29.1,27.8,00.0,38.0,31.0,12.6,0000.0,0014.23,0004.22,0002.96
2022-05-16 23:16:00,,0821.7,4.99,0.00,29.1,28.0,00.0,38.1,31.1,12.6,0000.0,0012.79,0004.16,0002.95
2022-05-16 23:17:00,,0821.6,5.00,0.00,29.2,28.1,00.0,38.1,31.1,12.5,0000.0,0012.57,0004.09,0002.92
2022-05-16 23:18:00,,0821.6,5.00,0.00,29.2,28.3,00.0,38.1,31.2,12.3,0000.0,0012.60,0004.07,0002.89
2022-05-16 23:19:00,,0821.6,4.99,0.00,29.3,28.4,00.0,38.1,31.2,12.1,0000.0,0012.31,0004.00,0002.82
2022-05-16 23:20:00,,0821.7,5.00,0.00,29.3,27.7,00.0,38.1,31.1,12.4,0000.0,0011.76,0003.91,0002.75
2022-05-16 23:21:00,,0821.7,5.00,0.00,29.2,25.4,00.0,38.1,30.7,12.7,0000.0,0010.87,0003.82,0002.67
2022-05-16 23:22:00,,0821.7,5.01,0.00,29.1,24.6,00.0,38.1,30.5,12.8,0000.0,0009.75,0003.81,0002.63
2022-05-16 23:23:00,,0821.6,5.00,0.00,29.0,25.2,00.0,38.0,30.5,12.8,0000.0,0010.18,0003.75,0002.60
2022-05-16 23:24:00,,0821.6,5.00,0.00,28.9,25.6,00.0,38.0,30.5,12.7,0000.0,0010.38,0003.71,0002.56
2022-05-16 23:25:00,,0821.6,5.00,0.00,28.9,26.0,00.0,38.0,30.5,12.9,0000.0,0010.17,0003.65,0002.51
2022-05-16 23:26:00,,0821.7,5.00,0.00,28.9,26.5,00.0,38.0,30.6,12.7,0000.0,0010.43,0003.65,0002.48
2022-05-16 23:27:00,,0821.6,5.00,0.00,28.9,26.8,00.0,38.0,30.7,12.8,0000.0,0010.54,0003.67,0002.46
2022-05-16 23:28:00,,0821.6,4.99,0.00,29.0,27.1,00.0,38.0,30.8,12.8,0000.0,0010.43,0003.71,0002.46
2022-05-16 23:29:00,,0821.5,4.99,0.00,29.0,27.4,00.0,38.0,30.9,12.7,0000.0,0010.39,0003.72,0002.47
2022-05-16 23:30:00,,0821.4,5.00,0.00,29.0,27.6,00.0,38.0,30.9,12.8,0000.0,0010.73,0003.75,0002.48
2022-05-16 23:31:00,,0821.4,5.00,0.00,29.1,27.8,00.0,38.0,31.0,12.9,0000.0,0011.49,0003.80,0002.52
2022-05-16 23:32:00,,0821.5,4.99,0.00,29.1,27.9,00.0,38.0,31.0,12.8,0000.0,0011.82,0003.87,0002.57
2022-05-16 23:33:00,,0821.5,5.00,0.00,29.2,28.1,00.0,38.0,31.1,12.7,0000.0,0012.55,0003.88,0002.58
2022-05-16 23:34:00,,0821.5,4.99,0.00,29.2,28.2,00.0,38.1,31.1,12.5,0000.0,0013.45,0003.94,0002.57
2022-05-16 23:35:00,,0821.5,5.01,0.00,29.2,28.3,00.0,38.1,31.2,12.8,0000.0,0013.45,0003.96,0002.58
2022-05-16 23:36:00,,0821.6,5.00,0.00,29.3,28.3,00.0,38.1,31.2,12.7,0000.0,0013.03,0004.00,0002.60
2022-05-16 23:37:00,,0821.7,4.99,0.00,29.3,26.7,00.0,38.1,30.9,11.8,0000.0,0012.74,0004.01,0002.61
2022-05-16 23:38:00,,0821.8,5.00,0.00,29.2,25.8,00.0,38.1,30.7,11.9,0000.0,0012.86,0004.05,0002.61
2022-05-16 23:39:00,,0821.8,5.01,0.00,29.1,26.1,00.0,38.1,30.7,11.4,0000.0,0012.79,0004.03,0002.59
2022-05-16 23:40:00,,0821.8,4.99,0.00,29.1,26.4,00.0,38.1,30.7,11.4,0000.0,0012.75,0004.00,0002.60
2022-05-16 23:41:00,,0821.7,5.00,0.00,29.1,26.8,00.0,38.1,30.8,12.1,0000.0,0012.36,0003.94,0002.59
2022-05-16 23:42:00,,0821.6,4.99,0.00,29.1,27.1,00.0,38.1,30.9,12.5,0000.0,0012.05,0003.90,0002.59
2022-05-16 23:43:00,,0821.7,5.01,0.00,29.1,27.4,00.0,38.1,31.0,12.4,0000.0,0011.42,0003.86,0002.57
2022-05-16 23:44:00,,0821.7,5.00,0.00,29.2,27.6,00.0,38.1,31.0,12.3,0000.0,0011.08,0003.79,0002.55
2022-05-16 23:45:00,,0821.6,4.99,0.00,29.2,27.9,00.0,38.1,31.1,12.2,0000.0,0009.19,0003.72,0002.56
2022-05-16 23:46:00,,0821.6,5.00,0.00,29.2,28.1,00.0,38.1,31.2,12.5,0000.0,0008.17,0003.67,0002.55
2022-05-16 23:47:00,,0821.5,5.01,0.00,29.3,28.2,00.0,38.2,31.2,12.7,0000.0,0007.97,0003.63,0002.55
2022-05-16 23:48:00,,0821.6,5.01,0.00,29.3,28.0,00.0,38.2,31.2,12.4,0000.0,0008.28,0003.61,0002.55
2022-05-16 23:49:00,,0821.6,4.99,0.00,29.3,26.1,00.0,38.2,30.9,12.3,0000.0,0008.12,0003.57,0002.58
2022-05-16 23:50:00,,0821.5,5.01,0.00,29.1,24.7,00.0,38.1,30.6,12.4,0000.0,0008.15,0003.59,0002.61
2022-05-16 23:51:00,,0821.5,5.01,0.00,29.1,25.2,00.0,38.1,30.5,12.6,0000.0,0008.54,0003.67,0002.63
2022-05-16 23:52:00,,0821.6,4.99,0.00,29.0,25.6,00.0,38.0,30.5,13.0,0000.0,0008.89,0003.73,0002.66
2022-05-16 23:53:00,,0821.6,5.02,0.00,29.0,26.1,00.0,38.0,30.6,12.9,0000.0,0008.58,0003.73,0002.69
2022-05-16 23:54:00,,0821.5,4.99,0.00,29.0,26.5,00.0,38.0,30.7,13.5,0000.0,0008.63,0003.75,0002.72
2022-05-16 23:55:00,,0821.6,5.00,0.00,29.0,26.9,00.0,38.0,30.8,12.8,0000.0,0008.91,0003.79,0002.76
2022-05-16 23:56:00,,0821.5,4.99,0.00,29.0,27.2,00.0,38.0,30.9,12.8,0000.0,0008.90,0003.79,0002.76
2022-05-16 23:57:00,,0821.5,4.99,0.00,29.1,27.5,00.0,38.0,31.0,12.7,0000.0,0008.91,0003.80,0002.76
2022-05-16 23:58:00,,0821.5,5.01,0.00,29.1,27.7,00.0,38.0,31.0,12.9,0000.0,0009.49,0003.88,0002.79
2022-05-16 23:59:00,,0821.5,5.01,0.00,29.2,27.9,00.0,38.1,31.1,12.7,0000.0,0009.56,0003.93,0002.81
